Wind_Speed
24 22 22 21 21 19 18 18 19 18 18 18 17 16 15 14 13 13 14 15 15 15 17 19 20 21 22 23 23 23 24 24 24 23 21 19 18 16 15 14 13 12 10 8 8 7 7 6 6 6 6 5 5 5 5 5 5 5 6 7 7 8 9
28 27 26 25 24 23 22 22 22 21 21 20 19 19 17 15 14 13 13 14 15 15 16 17 19 20 20 20 21 23 24 25 25 24 22 21 20 18 17 16 16 15 13 12 10 9 8 8 8 8 8 7 7 6 6 6 5 5 7 7 8 8 9
32 31 30 29 28 27 25 25 25 23 22 22 21 20 18 17 15 14 14 14 15 16 16 17 18 19 20 20 20 22 24 25 25 24 23 21 19 18 19 18 17 17 16 14 12 11 10 10 9 10 10 10 9 8 7 7 6 6 7 8 8 8 8
35 34 33 33 32 29 28 27 26 25 24 23 22 21 20 19 18 16 16 16 16 17 17 18 17 17 19 21 21 21 23 24 25 24 23 21 20 20 20 20 19 18 17 16 15 14 13 12 11 11 11 11 11 10 9 8 7 6 7 8 8 7 7
39 38 37 35 34 32 30 29 28 27 26 24 23 23 22 21 20 19 18 18 18 18 18 18 17 16 18 20 22 23 23 24 24 23 22 22 22 22 21 21 20 19 18 18 17 16 15 14 13 13 13 13 13 12 11 10 9 8 8 8 7 6 6
42 41 40 38 37 35 33 32 30 29 27 26 24 23 22 22 21 21 20 20 19 19 18 18 19 19 19 20 22 24 25 25 25 24 23 24 24 24 23 22 21 20 20 20 19 18 17 16 15 14 14 14 14 14 13 12 11 10 9 9 8 7 7
46 44 43 41 39 37 35 34 32 31 29 26 25 24 24 23 22 22 21 21 20 19 19 20 20 21 22 22 22 24 26 27 27 26 25 25 26 25 24 23 22 22 21 21 20 19 18 17 17 16 16 16 16 16 15 14 12 11 11 10 9 8 7
48 46 45 43 41 39 37 35 34 32 30 28 26 26 26 25 23 23 22 21 21 20 21 21 22 22 22 23 23 24 26 27 28 27 27 27 27 26 26 25 24 24 23 22 22 20 19 19 19 18 18 17 17 17 16 16 14 13 12 12 11 10 9
50 48 47 44 42 41 39 37 36 34 32 30 29 28 26 25 25 24 22 21 21 21 21 22 22 22 22 23 23 23 24 26 27 28 28 28 28 27 27 26 26 25 25 24 23 22 21 20 20 19 19 19 18 18 18 18 17 15 14 14 13 12 11
52 49 48 46 44 43 41 39 36 34 33 32 31 29 28 27 26 25 24 22 22 21 21 21 21 22 23 23 23 22 23 24 26 27 28 29 29 28 28 28 27 27 26 25 25 24 23 22 22 21 20 20 20 20 20 20 19 17 16 16 15 14 13
53 50 49 47 46 44 42 40 37 35 35 34 33 32 31 29 28 27 26 25 23 21 20 21 22 23 24 24 23 23 24 25 26 27 28 29 28 29 29 28 28 28 27 26 26 25 24 24 23 22 21 21 21 21 22 22 20 19 18 18 17 17 16
54 52 51 49 46 44 42 41 39 37 37 36 35 34 33 32 30 28 27 26 24 22 21 21 22 23 23 24 24 24 25 26 27 28 29 29 28 28 28 29 29 28 28 27 27 26 25 25 24 23 22 22 22 23 23 23 22 21 20 20 19 19 18
55 53 51 49 47 45 43 42 41 40 40 39 37 36 35 33 31 29 28 27 25 23 22 22 22 23 23 24 25 26 26 27 28 30 30 29 28 27 28 29 30 29 28 28 28 27 26 26 25 24 23 23 24 24 24 24 23 23 22 22 22 22 21
55 53 51 49 48 46 45 45 44 43 42 41 39 38 36 34 32 30 29 27 25 24 23 23 23 23 24 24 26 27 28 28 29 30 31 30 29 28 28 29 30 30 30 30 30 29 28 28 26 25 25 25 25 26 25 24 24 24 24 24 24 24 23
57 54 52 50 49 47 46 46 45 44 43 42 40 39 37 35 33 32 30 29 28 26 25 25 25 24 25 25 27 28 29 29 29 30 30 30 30 29 29 29 30 30 31 32 32 31 30 29 28 27 27 27 27 27 26 25 25 25 26 26 26 26 25
58 56 54 51 50 48 47 47 45 44 43 43 42 41 39 37 35 34 33 31 29 28 27 26 26 26 26 27 29 29 29 30 30 31 31 31 31 30 30 30 30 31 32 33 33 33 33 32 31 30 29 28 28 28 28 26 26 27 28 28 28 28 27
59 57 55 53 51 50 49 48 47 46 45 45 44 43 41 39 38 37 35 32 31 29 28 28 28 28 28 29 29 29 29 31 31 31 31 32 32 31 31 31 32 32 33 33 34 34 35 34 33 32 31 30 30 30 29 28 27 28 29 30 30 29 29
61 58 56 54 53 51 51 50 50 49 48 48 47 45 43 41 39 38 36 34 33 31 30 30 30 29 29 30 30 29 30 31 32 32 33 33 33 33 33 32 32 33 34 34 34 34 35 35 35 35 33 32 32 32 31 29 28 29 31 31 31 31 31
64 61 58 56 55 54 54 54 52 51 50 49 48 46 44 42 40 40 38 36 35 33 32 31 30 30 30 30 30 30 31 32 33 34 34 35 35 35 34 34 34 34 35 35 34 34 35 36 36 36 35 35 34 33 32 30 29 30 32 32 32 33 33
65 63 61 59 58 58 58 56 54 52 51 50 48 47 45 43 42 41 39 37 35 33 32 32 31 31 31 31 31 31 32 33 34 36 36 36 36 36 36 36 35 35 35 35 35 36 36 37 37 37 37 37 36 35 34 33 31 32 32 33 33 34 34
67 65 64 63 62 61 59 56 55 55 54 52 50 48 46 44 43 42 39 37 36 34 34 33 33 33 33 32 33 33 33 35 36 37 38 38 38 38 38 38 38 37 36 36 37 37 37 37 37 38 38 38 38 37 36 35 33 33 34 34 34 35 36
69 67 66 66 65 62 59 58 59 58 56 53 51 49 47 45 44 43 41 39 37 36 35 35 35 35 34 34 34 35 35 36 38 38 39 39 39 39 39 40 40 40 39 38 37 37 37 37 38 38 38 38 38 38 37 36 35 35 35 36 36 37 38
71 70 70 68 66 64 62 62 61 58 55 54 52 50 49 47 45 44 42 40 38 37 37 37 37 36 35 36 36 37 37 37 39 40 40 40 40 41 41 42 42 41 40 39 38 38 37 37 37 37 37 37 38 39 38 37 37 37 37 37 39 39 40
74 73 72 70 67 66 66 64 61 58 56 56 54 52 51 48 45 44 43 40 39 39 38 39 38 37 37 38 38 38 38 39 40 41 42 42 42 43 43 43 43 42 41 41 40 39 38 36 35 35 35 36 38 39 39 38 38 38 39 39 40 41 41
75 74 72 71 70 69 67 64 60 58 58 57 55 54 52 48 45 45 43 42 41 40 40 40 39 39 39 39 39 39 39 40 41 42 43 44 44 44 44 44 43 43 43 43 42 40 39 37 36 35 35 36 37 39 39 39 38 39 40 41 42 43 44
75 74 73 72 71 69 66 63 61 60 59 57 56 54 52 49 46 45 44 43 42 41 41 41 41 41 41 40 39 39 40 40 42 43 44 45 45 45 45 44 44 44 44 44 44 43 41 39 38 37 36 36 37 38 39 38 38 39 40 41 43 45 45
75 74 73 73 71 69 66 64 62 61 60 58 57 55 52 49 47 47 46 44 43 42 43 44 43 42 41 40 40 41 41 42 43 44 45 45 45 45 45 45 45 45 46 46 45 45 43 42 40 39 38 37 37 38 39 39 39 40 40 41 43 45 46
77 75 74 73 71 69 67 66 64 62 61 59 57 55 51 48 48 48 47 45 45 45 45 45 43 42 42 42 42 42 42 43 43 44 45 45 45 45 45 45 46 46 46 47 46 46 46 44 43 42 41 40 39 39 40 40 39 39 40 41 43 44 46
78 76 74 73 71 69 68 67 65 63 61 60 58 55 51 50 49 49 47 47 46 46 46 45 43 43 43 44 44 43 42 42 42 42 43 44 45 45 45 45 45 46 46 47 47 47 47 47 46 45 44 43 42 41 40 39 38 38 38 40 42 43 45
79 77 75 73 71 70 69 68 66 65 63 61 59 56 53 52 52 50 49 49 47 47 46 45 45 45 45 44 44 42 41 40 40 41 42 43 43 44 44 44 45 46 46 47 47 49 49 49 49 48 47 46 45 44 42 40 39 38 38 39 40 42 43
80 77 75 74 72 70 70 69 67 65 63 61 59 57 56 55 54 53 52 51 49 48 47 46 46 46 45 44 42 41 40 40 40 41 42 43 43 43 43 43 44 45 46 47 48 49 51 51 51 51 50 49 49 48 46 44 42 41 40 40 40 41 41
81 79 76 75 73 72 70 69 68 65 64 62 60 59 59 57 55 55 54 52 51 50 48 47 46 46 44 42 41 40 40 40 41 42 43 44 44 43 43 43 44 44 45 46 48 50 51 52 53 53 53 53 52 51 50 49 47 45 44 43 43 42 42
81 79 78 75 74 73 72 70 68 66 65 63 62 61 60 59 58 58 57 54 52 51 50 48 47 45 43 41 41 41 41 42 43 43 44 44 45 45 44 44 45 45 45 46 48 49 50 51 53 54 54 54 54 53 52 51 50 49 48 47 46 45 44
83 80 79 77 75 74 73 71 69 68 66 64 63 62 61 60 60 60 58 56 54 53 51 49 46 44 43 43 43 43 44 44 44 43 44 44 45 44 45 45 45 46 47 47 47 48 49 51 52 53 54 54 54 53 52 51 52 51 50 49 48 47 46
85 81 79 78 76 74 73 72 70 68 67 65 64 64 63 62 62 61 59 57 56 54 52 49 47 45 45 45 45 45 45 45 44 44 44 44 44 44 45 45 45 46 46 47 47 48 50 51 52 53 54 54 54 54 53 52 52 52 51 50 49 49 48
85 83 80 78 77 75 74 73 71 69 67 66 65 64 64 63 63 62 61 60 58 55 53 50 49 47 46 46 47 47 47 46 45 45 45 45 45 45 45 45 45 45 46 46 48 49 50 51 52 53 54 54 54 54 55 54 53 52 52 51 50 50 50
87 84 82 81 79 77 76 74 73 71 69 67 66 64 64 64 64 63 63 62 59 56 54 52 50 49 48 47 48 48 48 47 46 46 46 46 45 45 45 45 45 45 45 46 47 48 49 50 51 52 53 54 54 55 55 55 55 54 53 52 52 52 52
90 87 84 82 80 78 78 76 74 73 71 69 67 65 64 65 65 65 64 63 60 57 56 54 53 51 50 49 48 48 49 48 47 47 47 46 46 45 45 44 44 44 45 46 47 48 49 49 50 51 52 53 54 55 55 55 55 55 54 54 54 54 54
Wind_Direction
215 214 213 216 216 213 210 210 211 207 203 199 192 191 199 207 207 200 194 190 193 202 207 208 210 215 217 216 213 211 210 212 214 216 218 219 221 221 221 224 227 232 238 245 247 245 245 248 250 252 255 260 265 269 274 280 285 297 307 315 326 334 340
212 212 212 214 216 213 209 210 212 209 207 205 198 194 196 202 210 208 201 195 192 200 211 214 213 214 217 219 216 213 212 214 216 217 219 222 224 226 228 229 231 233 237 243 248 248 247 248 250 251 253 256 259 262 264 269 276 289 300 308 319 328 337
212 213 213 214 216 215 212 213 216 214 212 210 205 201 197 198 207 210 207 201 195 199 210 218 219 215 213 215 217 218 217 219 220 220 220 223 226 229 232 233 233 235 237 243 249 250 248 246 248 248 249 252 255 257 258 260 267 280 292 302 312 323 338
212 213 214 215 218 218 215 216 219 218 216 216 212 207 201 198 202 207 209 207 201 200 206 216 221 220 217 215 213 217 221 223 224 223 222 222 224 227 231 232 234 235 238 242 247 249 248 248 247 247 248 250 253 255 255 255 259 271 284 294 303 316 334
213 214 215 217 219 219 218 218 220 220 221 221 219 214 210 204 202 206 209 209 208 205 205 212 218 223 225 221 215 214 218 224 227 226 224 222 222 225 228 230 233 235 238 241 245 248 249 249 249 249 249 250 252 254 254 253 255 265 277 284 292 304 323
214 214 216 218 220 220 219 219 220 222 223 224 225 224 222 216 208 207 209 212 213 210 207 209 214 218 221 222 220 217 216 221 225 225 224 224 223 224 226 229 231 234 237 240 244 246 249 250 251 251 250 249 249 251 252 252 253 261 270 275 280 291 308
216 216 216 218 221 221 221 221 221 223 223 224 227 228 228 226 219 212 209 212 215 214 211 212 214 218 218 218 220 219 219 221 223 223 223 225 226 226 226 227 229 231 235 238 242 245 247 250 251 252 251 249 248 248 248 248 250 256 263 268 271 281 297
218 218 218 219 221 222 222 222 222 224 225 224 225 226 229 231 229 221 215 213 214 215 216 216 217 221 222 221 220 222 224 225 225 225 224 225 228 229 229 229 229 230 233 236 240 243 246 250 252 252 253 251 248 247 247 247 248 253 259 264 267 276 289
219 219 220 220 221 222 223 223 223 224 225 224 224 226 229 231 232 230 224 218 216 217 220 221 222 224 227 226 224 224 228 231 232 231 229 227 228 230 231 232 231 232 233 235 238 241 244 247 250 252 253 252 250 247 246 246 246 250 257 262 266 273 282
220 220 221 221 221 221 223 224 224 224 225 225 224 225 227 229 231 231 229 224 220 219 221 224 227 227 230 231 228 224 226 232 236 237 236 233 231 231 233 234 234 234 235 236 238 239 242 244 247 249 251 252 251 248 246 246 246 248 253 259 264 270 277
220 220 221 221 221 222 222 223 223 223 224 225 224 225 225 227 229 230 230 228 225 222 222 224 227 229 231 234 232 227 226 228 234 237 238 238 236 235 235 235 236 236 236 237 238 239 241 243 245 247 248 250 250 249 247 247 247 248 252 257 261 266 272
219 219 220 221 222 222 222 222 222 222 224 226 226 226 226 227 228 230 231 231 229 226 224 224 227 229 232 235 235 232 229 228 231 236 237 238 238 238 237 237 238 238 238 239 240 240 241 243 244 246 247 249 250 249 249 248 248 248 251 255 259 263 268
217 219 220 221 221 222 222 222 222 221 222 225 226 226 227 227 228 229 231 232 231 231 230 229 229 230 232 234 236 236 234 230 231 235 237 238 238 239 239 239 240 239 239 240 240 241 241 242 243 245 246 247 249 249 249 249 248 248 251 254 257 261 265
216 217 219 220 220 221 222 222 222 221 222 224 226 226 228 228 229 229 230 232 233 234 234 233 233 232 232 234 236 238 238 235 234 235 238 239 239 239 239 240 240 239 239 239 240 240 241 242 242 243 245 246 247 249 249 249 248 249 250 253 256 260 264
215 215 216 218 219 220 222 223 223 222 223 224 225 227 228 228 229 229 230 231 232 233 234 234 234 234 234 234 236 238 239 240 238 237 238 240 240 239 239 240 240 240 239 239 239 240 240 241 241 242 243 244 246 248 249 249 248 249 250 253 256 259 263
215 215 215 216 217 218 220 222 223 223 223 224 226 227 227 227 228 228 229 230 232 233 235 236 237 237 237 236 237 238 239 240 241 240 239 240 240 240 240 240 240 240 240 240 241 241 241 241 240 240 241 243 245 247 248 248 248 249 251 253 255 259 262
214 215 215 215 215 216 219 221 221 222 222 223 225 226 227 227 227 228 229 231 233 234 235 237 239 240 241 241 242 243 241 241 241 241 240 240 240 240 241 241 241 241 241 242 242 243 243 243 242 241 240 241 244 246 247 248 248 250 252 254 256 258 261
213 213 213 214 214 215 218 219 221 221 222 223 225 227 228 229 229 231 231 231 232 233 234 237 239 241 242 244 246 246 245 244 243 242 241 241 240 240 240 241 242 243 243 243 243 244 245 246 245 244 242 242 243 245 246 247 249 250 252 254 256 258 261
212 212 211 212 213 215 217 219 220 222 223 225 226 227 229 229 231 232 232 232 233 235 236 238 240 243 245 247 248 247 247 246 245 243 242 241 241 240 240 240 241 243 244 244 244 244 245 246 247 246 245 243 243 245 246 246 248 250 252 254 256 258 260
213 212 211 211 212 214 216 218 220 221 223 225 227 228 229 230 231 233 234 235 237 238 239 241 243 245 247 248 249 249 248 247 245 244 243 242 241 240 240 240 240 241 243 245 245 245 245 245 246 247 247 246 246 246 246 246 247 249 252 254 256 258 260
213 212 211 211 212 213 215 216 219 221 222 224 225 227 229 230 232 234 236 236 237 239 240 241 242 244 246 248 248 248 247 246 245 244 244 243 242 241 240 240 240 241 241 243 245 246 246 246 246 246 247 247 247 248 248 248 248 250 252 254 256 258 260
213 213 212 212 212 213 214 215 218 220 221 223 224 226 228 229 230 233 235 236 237 239 240 241 242 244 245 247 247 247 247 246 245 244 243 243 243 242 241 240 240 241 241 242 244 246 248 247 246 246 247 247 248 250 251 251 251 251 253 255 256 258 260
213 214 214 214 213 213 213 215 218 219 221 223 225 226 227 228 230 233 235 236 237 239 240 242 244 245 246 247 247 247 247 246 246 245 244 243 242 242 241 240 240 240 241 242 244 246 248 249 250 250 249 248 248 250 251 252 252 253 254 255 257 258 259
214 214 215 215 214 214 215 216 218 219 221 223 224 225 227 228 230 233 235 236 237 239 241 243 245 247 247 248 248 248 247 246 246 245 244 243 242 241 241 241 240 240 241 242 243 245 246 248 251 252 250 248 247 248 249 250 251 252 254 255 257 258 259
215 215 216 216 216 216 216 217 217 219 221 223 224 225 226 227 229 233 235 236 238 240 241 243 245 246 247 248 249 249 248 247 246 246 246 245 244 243 242 242 241 241 241 241 242 244 244 245 247 248 249 249 248 247 247 248 249 251 253 255 256 258 259
216 215 216 217 217 218 217 217 217 218 221 223 224 225 226 227 228 232 234 235 237 239 240 242 244 245 247 249 249 249 247 246 245 245 245 245 245 245 245 244 243 242 241 241 242 242 244 245 245 246 248 250 250 250 248 247 247 249 251 253 254 256 257
217 216 216 217 218 218 218 218 217 219 220 223 225 226 226 227 229 232 234 235 236 237 239 241 243 246 248 249 249 247 245 244 243 244 245 246 246 247 247 246 245 244 243 242 242 242 243 244 246 246 247 249 251 251 250 247 246 246 248 251 253 255 256
218 217 217 218 218 218 218 218 218 219 221 223 225 227 227 228 231 233 234 235 236 237 239 242 245 247 248 248 247 246 245 243 243 243 245 246 247 247 247 247 247 246 246 245 244 243 243 244 246 247 248 249 250 250 249 248 247 247 249 251 253 255 256
218 218 218 219 219 218 219 220 220 220 221 223 225 227 227 229 231 233 234 235 236 238 241 243 245 246 246 247 247 246 245 244 244 244 245 247 248 249 249 249 249 249 248 247 246 244 243 243 245 247 248 249 250 250 250 249 249 250 251 253 254 256 258
219 219 219 220 220 220 220 221 221 222 223 224 226 227 228 229 231 232 233 235 237 239 241 243 244 245 246 246 246 246 245 245 244 245 246 247 249 250 250 250 250 249 248 247 246 245 244 243 244 245 247 248 249 250 250 249 249 250 251 254 256 258 259
220 219 220 221 221 221 221 222 222 223 224 225 227 227 228 230 231 232 234 235 237 239 241 242 244 245 246 246 246 245 245 245 244 245 246 247 248 249 249 249 249 248 248 247 246 245 244 244 244 244 246 247 248 249 250 250 250 251 252 254 256 259 261
221 220 220 221 222 222 223 223 223 224 225 226 227 228 229 230 231 233 235 236 237 239 241 242 244 245 246 246 246 245 245 245 244 244 244 245 246 246 246 246 246 247 247 247 246 246 245 245 244 245 245 247 248 249 251 252 253 253 254 255 257 259 262
222 222 221 222 222 223 224 225 224 224 225 226 227 228 230 231 232 234 235 236 238 239 240 241 243 244 244 245 245 245 244 244 244 244 244 245 246 246 247 246 246 246 246 246 246 247 247 247 246 246 247 248 249 251 252 253 254 255 256 257 259 260 263
222 223 223 223 223 224 225 226 226 226 226 227 228 229 230 231 233 234 236 237 237 239 239 240 241 242 243 243 243 243 243 244 244 245 245 246 247 248 249 248 247 246 246 245 246 247 248 248 248 248 248 249 250 251 252 253 254 255 256 257 259 261 262
223 223 224 224 224 225 226 226 227 227 227 227 228 230 231 232 234 235 236 236 237 238 239 239 240 240 242 243 243 244 244 244 245 245 246 246 247 248 249 249 249 248 247 247 246 246 246 247 247 248 248 248 249 250 251 252 253 254 255 256 258 260 261
224 224 224 225 225 225 226 227 228 228 228 229 229 231 232 233 234 235 236 236 237 237 238 238 238 239 241 242 243 244 244 245 245 245 245 246 246 247 248 248 249 249 249 248 247 247 247 247 247 248 248 249 249 250 250 252 253 254 256 256 257 259 260
225 225 225 226 226 226 227 228 229 229 229 230 230 231 233 234 235 236 236 237 237 237 236 236 237 238 240 241 243 245 245 245 245 246 246 246 246 247 248 249 249 250 250 250 250 249 249 249 249 249 249 250 250 251 251 252 253 254 255 256 257 258 260
224 225 226 226 227 228 228 229 230 230 230 231 231 232 233 235 236 237 238 238 237 235 234 234 236 237 239 240 243 245 246 245 245 246 246 247 247 247 248 249 250 250 250 250 251 251 251 251 251 251 250 250 251 251 252 253 253 254 255 256 257 258 259
Height
10966 10968 10970 10972 10974 10975 10977 10978 10979 10981 10982 10983 10984 10986 10989 10990 10992 10993 10994 10995 10997 10999 11000 11001 11003 11004 11005 11007 11009 11011 11012 11013 11015 11016 11018 11019 11020 11021 11022 11023 11023 11024 11025 11025 11026 11027 11027 11028 11028 11028 11029 11029 11029 11029 11029 11029 11029 11029 11028 11028 11027 11027 11026
10962 10964 10966 10968 10970 10973 10975 10975 10976 10978 10980 10981 10982 10984 10986 10988 10990 10991 10993 10994 10996 10997 10999 11000 11001 11003 11004 11006 11008 11009 11010 11011 11013 11015 11016 11018 11019 11020 11021 11022 11022 11023 11024 11025 11025 11026 11027 11027 11027 11028 11028 11028 11028 11028 11029 11028 11028 11028 11028 11028 11027 11026 11026
10958 10960 10962 10964 10967 10969 10972 10973 10974 10976 10978 10979 10980 10981 10983 10986 10988 10990 10991 10993 10994 10996 10997 10998 10999 11001 11003 11005 11006 11008 11009 11010 11011 11013 11015 11016 11018 11019 11020 11021 11021 11022 11023 11024 11024 11025 11026 11026 11027 11027 11027 11027 11028 11028 11028 11028 11028 11028 11028 11027 11027 11026 11025
10953 10956 10958 10960 10963 10966 10969 10971 10972 10974 10975 10977 10979 10980 10981 10983 10985 10987 10989 10991 10992 10993 10995 10997 10998 11000 11001 11003 11005 11006 11007 11008 11009 11011 11013 11015 11016 11017 11018 11019 11020 11021 11022 11023 11023 11024 11024 11025 11026 11026 11026 11026 11027 11027 11027 11027 11027 11027 11027 11027 11026 11026 11025
10949 10951 10953 10956 10959 10963 10965 10967 10969 10971 10973 10975 10977 10978 10979 10980 10982 10984 10986 10988 10990 10991 10993 10995 10997 10999 11000 11001 11002 11004 11005 11006 11008 11010 11012 11013 11014 11015 11016 11017 11018 11019 11021 11021 11022 11023 11023 11024 11024 11025 11025 11026 11026 11026 11026 11026 11026 11026 11026 11026 11025 11025 11025
10944 10946 10949 10952 10955 10958 10961 10963 10966 10968 10971 10973 10975 10977 10978 10979 10980 10981 10984 10986 10987 10989 10991 10993 10994 10996 10997 10999 11000 11002 11003 11004 11006 11008 11009 11010 11011 11012 11014 11015 11016 11018 11019 11019 11020 11021 11022 11023 11023 11024 11024 11025 11025 11025 11025 11025 11025 11025 11025 11025 11024 11024 11024
10939 10942 10945 10947 10950 10954 10957 10960 10962 10965 10968 10971 10973 10975 10976 10977 10978 10979 10981 10983 10985 10987 10988 10990 10991 10993 10995 10996 10998 11000 11001 11002 11003 11005 11007 11008 11009 11010 11012 11013 11014 11015 11016 11017 11018 11019 11020 11021 11022 11023 11023 11024 11024 11024 11024 11024 11024 11024 11024 11024 11023 11023 11023
10934 10938 10941 10944 10947 10950 10953 10956 10959 10961 10965 10968 10970 10972 10973 10975 10976 10977 10978 10980 10982 10984 10986 10987 10988 10990 10992 10994 10996 10998 10999 11000 11001 11003 11005 11006 11007 11008 11009 11011 11012 11013 11014 11015 11016 11017 11019 11019 11020 11021 11022 11022 11023 11023 11023 11023 11023 11023 11023 11022 11022 11022 11022
10929 10933 10937 10940 10943 10946 10949 10952 10955 10958 10961 10964 10966 10968 10970 10973 10974 10975 10977 10978 10980 10981 10983 10985 10986 10988 10989 10991 10994 10996 10997 10998 10999 11000 11002 11003 11005 11006 11007 11008 11010 11010 11011 11013 11014 11015 11016 11017 11018 11019 11020 11020 11021 11021 11021 11021 11022 11022 11021 11021 11021 11021 11021
10923 10928 10932 10936 10939 10942 10945 10948 10952 10956 10958 10960 10962 10965 10967 10969 10971 10973 10974 10975 10977 10979 10981 10983 10984 10986 10987 10988 10991 10993 10995 10996 10997 10998 10999 11001 11002 11003 11005 11006 11007 11008 11009 11010 11011 11013 11014 11015 11016 11017 11018 11018 11019 11019 11019 11020 11020 11020 11020 11020 11020 11020 11019
10918 10923 10927 10931 10935 10938 10941 10945 10949 10951 10953 10955 10958 10961 10963 10965 10967 10970 10971 10972 10974 10976 10978 10980 10981 10983 10984 10985 10988 10991 10992 10993 10994 10995 10996 10998 11000 11001 11003 11004 11005 11006 11007 11008 11009 11010 11011 11012 11013 11014 11015 11016 11017 11017 11017 11018 11018 11019 11019 11018 11018 11018 11018
10913 10918 10922 10926 10930 10934 10938 10941 10944 10947 10949 10951 10954 10957 10959 10962 10964 10966 10968 10970 10972 10974 10975 10977 10978 10980 10981 10983 10985 10987 10988 10990 10991 10992 10993 10995 10997 10999 11000 11001 11002 11004 11005 11006 11007 11008 11009 11009 11010 11011 11013 11014 11014 11015 11015 11016 11016 11017 11017 11017 11017 11016 11017
10907 10912 10917 10921 10926 10930 10934 10937 10940 10942 10944 10946 10950 10953 10955 10958 10961 10963 10965 10967 10969 10971 10972 10974 10975 10977 10979 10980 10982 10983 10985 10987 10988 10988 10990 10992 10994 10996 10998 10998 11000 11001 11002 11003 11004 11005 11006 11007 11008 11009 11010 11011 11011 11012 11012 11013 11014 11015 11015 11015 11015 11015 11015
10902 10907 10912 10917 10921 10925 10928 10932 10935 10937 10939 10942 10946 10949 10952 10955 10958 10960 10962 10964 10966 10968 10969 10970 10972 10973 10975 10977 10978 10979 10981 10983 10984 10986 10987 10989 10991 10993 10994 10995 10996 10998 10999 11000 11001 11002 11003 11004 11005 11006 11007 11007 11008 11008 11009 11011 11012 11013 11013 11013 11013 11013 11013
10897 10902 10907 10912 10916 10920 10924 10927 10930 10933 10935 10938 10941 10945 10948 10951 10954 10956 10958 10961 10962 10964 10965 10967 10968 10970 10971 10973 10974 10975 10977 10979 10981 10983 10984 10986 10987 10989 10990 10991 10993 10994 10996 10997 10998 10999 11000 11001 11002 11003 11004 11004 11005 11005 11006 11008 11009 11010 11010 11010 11010 11011 11011
10892 10897 10902 10906 10910 10915 10918 10922 10925 10928 10931 10933 10936 10939 10943 10946 10949 10951 10954 10956 10958 10960 10962 10963 10964 10966 10967 10968 10969 10971 10973 10975 10977 10979 10981 10982 10983 10985 10986 10988 10989 10991 10992 10993 10994 10995 10996 10997 10999 10999 11000 11001 11002 11002 11003 11005 11006 11007 11007 11007 11008 11008 11008
10887 10892 10897 10901 10905 10909 10913 10916 10920 10923 10925 10928 10931 10934 10937 10941 10944 10946 10949 10952 10954 10956 10958 10959 10961 10962 10963 10964 10966 10968 10970 10971 10973 10975 10977 10978 10979 10981 10982 10983 10985 10986 10988 10989 10990 10992 10993 10994 10995 10996 10997 10998 10999 10999 11000 11001 11003 11004 11004 11004 11005 11005 11005
10880 10885 10891 10895 10899 10904 10907 10910 10914 10917 10920 10922 10925 10929 10932 10936 10939 10941 10945 10947 10949 10952 10953 10955 10956 10958 10959 10961 10962 10964 10966 10967 10969 10971 10972 10974 10975 10977 10978 10979 10981 10982 10983 10985 10986 10987 10989 10990 10991 10993 10994 10995 10995 10996 10997 10998 11000 11000 11000 11001 11002 11002 11002
10872 10878 10884 10889 10893 10897 10900 10903 10908 10911 10914 10917 10921 10924 10927 10931 10934 10936 10939 10942 10944 10947 10949 10950 10952 10954 10955 10957 10959 10960 10962 10963 10965 10966 10967 10969 10971 10972 10974 10975 10976 10977 10978 10980 10981 10983 10984 10985 10987 10989 10990 10991 10992 10992 10994 10995 10996 10997 10997 10998 10998 10998 10999
10866 10871 10877 10881 10886 10889 10893 10898 10902 10905 10908 10912 10916 10919 10922 10926 10929 10931 10934 10938 10941 10943 10944 10946 10948 10949 10951 10952 10954 10956 10958 10959 10960 10961 10963 10964 10966 10968 10969 10970 10971 10972 10974 10975 10977 10978 10979 10980 10982 10984 10986 10987 10988 10989 10990 10991 10993 10993 10993 10994 10994 10995 10995
10860 10865 10870 10874 10878 10882 10887 10893 10896 10898 10901 10905 10909 10913 10918 10922 10924 10927 10931 10934 10936 10938 10939 10941 10942 10944 10946 10947 10949 10951 10953 10954 10955 10956 10958 10959 10961 10962 10964 10965 10966 10968 10969 10970 10972 10973 10974 10976 10978 10979 10981 10982 10984 10985 10986 10987 10989 10989 10989 10990 10990 10990 10990
10854 10859 10863 10867 10872 10877 10882 10886 10888 10891 10895 10899 10904 10909 10913 10916 10919 10922 10925 10928 10931 10933 10934 10935 10937 10939 10941 10942 10943 10945 10947 10948 10950 10951 10953 10955 10956 10957 10958 10959 10961 10962 10964 10966 10967 10968 10969 10971 10973 10974 10976 10978 10979 10981 10982 10983 10985 10985 10985 10985 10986 10985 10985
10848 10852 10856 10861 10867 10872 10875 10877 10881 10886 10890 10894 10899 10904 10907 10910 10914 10917 10920 10923 10925 10927 10929 10930 10932 10934 10935 10936 10938 10939 10941 10942 10944 10945 10947 10949 10950 10951 10952 10953 10955 10957 10959 10961 10962 10964 10965 10966 10968 10970 10971 10973 10975 10976 10977 10979 10980 10980 10981 10981 10980 10980 10980
10841 10844 10849 10855 10861 10865 10868 10872 10877 10882 10885 10888 10893 10897 10901 10905 10909 10912 10914 10917 10919 10921 10923 10925 10926 10928 10930 10931 10932 10934 10935 10937 10938 10940 10942 10943 10944 10945 10946 10948 10950 10953 10954 10956 10957 10959 10960 10962 10964 10965 10967 10968 10969 10970 10972 10974 10975 10975 10976 10976 10975 10975 10975
10833 10839 10844 10849 10854 10858 10862 10868 10873 10876 10879 10883 10887 10891 10895 10900 10904 10906 10908 10911 10913 10916 10918 10919 10920 10922 10923 10925 10927 10928 10930 10931 10933 10934 10936 10937 10938 10940 10941 10943 10945 10947 10949 10951 10952 10954 10956 10958 10959 10960 10961 10963 10964 10965 10967 10968 10970 10970 10971 10971 10970 10969 10969
10826 10833 10838 10842 10847 10853 10858 10864 10868 10871 10873 10877 10881 10885 10889 10894 10898 10899 10902 10905 10907 10909 10910 10912 10914 10916 10917 10920 10921 10923 10924 10926 10927 10928 10929 10931 10933 10935 10936 10938 10940 10942 10944 10945 10947 10949 10951 10952 10954 10955 10957 10958 10959 10960 10961 10963 10964 10964 10965 10965 10964 10963 10963
10821 10827 10832 10836 10842 10848 10854 10858 10862 10865 10868 10871 10874 10878 10883 10888 10891 10893 10895 10898 10901 10902 10903 10904 10907 10910 10913 10914 10915 10917 10918 10920 10921 10922 10923 10925 10928 10930 10932 10933 10935 10936 10938 10940 10942 10944 10945 10947 10949 10950 10952 10953 10954 10955 10955 10957 10958 10958 10958 10959 10958 10957 10957
10813 10819 10825 10831 10836 10843 10848 10852 10856 10860 10863 10866 10869 10873 10878 10882 10884 10886 10889 10891 10893 10894 10896 10899 10903 10905 10907 10908 10909 10910 10912 10914 10915 10917 10918 10920 10922 10924 10926 10928 10929 10931 10932 10934 10936 10938 10940 10942 10944 10945 10946 10947 10948 10948 10949 10950 10951 10952 10953 10953 10952 10951 10950
10807 10813 10819 10825 10831 10837 10841 10845 10850 10854 10858 10861 10864 10869 10873 10876 10877 10879 10882 10883 10885 10887 10891 10895 10897 10899 10900 10901 10902 10904 10906 10908 10910 10912 10914 10915 10917 10918 10920 10922 10924 10925 10927 10928 10931 10932 10934 10936 10938 10939 10940 10941 10941 10942 10943 10944 10946 10947 10947 10947 10946 10946 10945
10800 10807 10813 10819 10825 10830 10834 10839 10844 10848 10852 10856 10860 10864 10867 10868 10870 10872 10874 10876 10879 10882 10886 10889 10891 10892 10894 10895 10897 10899 10901 10903 10905 10907 10908 10910 10911 10913 10914 10916 10918 10919 10920 10922 10924 10926 10928 10930 10931 10932 10933 10934 10935 10936 10937 10938 10940 10941 10942 10942 10942 10941 10940
10793 10800 10807 10813 10818 10823 10828 10833 10838 10842 10847 10851 10855 10858 10860 10861 10863 10865 10867 10871 10874 10877 10880 10883 10885 10886 10888 10889 10891 10894 10896 10898 10899 10901 10903 10904 10905 10907 10908 10910 10911 10912 10914 10916 10918 10919 10921 10923 10925 10926 10927 10928 10929 10930 10931 10933 10935 10936 10937 10937 10937 10937 10937
10786 10794 10800 10806 10812 10817 10822 10826 10832 10837 10841 10845 10848 10851 10852 10854 10856 10859 10862 10866 10869 10871 10874 10877 10879 10880 10882 10884 10886 10888 10890 10892 10894 10895 10896 10898 10899 10900 10902 10903 10905 10906 10908 10910 10911 10913 10915 10917 10918 10920 10921 10922 10923 10925 10926 10928 10930 10931 10932 10932 10933 10933 10933
10779 10787 10794 10800 10805 10810 10815 10820 10825 10831 10835 10839 10842 10844 10845 10848 10850 10852 10856 10860 10863 10865 10868 10871 10872 10874 10877 10879 10881 10882 10884 10886 10887 10889 10891 10892 10893 10895 10896 10898 10899 10900 10902 10903 10905 10907 10909 10911 10912 10913 10915 10916 10918 10920 10922 10923 10924 10925 10926 10927 10927 10928 10929
10772 10780 10786 10793 10799 10803 10808 10813 10818 10823 10828 10832 10835 10837 10839 10841 10842 10845 10849 10853 10856 10859 10862 10864 10866 10868 10870 10872 10874 10876 10878 10879 10881 10884 10885 10886 10888 10889 10891 10892 10893 10894 10895 10897 10899 10901 10903 10904 10906 10907 10909 10910 10911 10913 10914 10915 10916 10918 10920 10921 10922 10923 10923
10766 10773 10780 10786 10792 10797 10802 10806 10810 10815 10820 10824 10828 10830 10832 10833 10835 10838 10843 10846 10849 10852 10855 10858 10860 10862 10864 10866 10868 10869 10871 10874 10876 10878 10879 10880 10882 10884 10884 10885 10887 10888 10889 10892 10894 10895 10896 10898 10899 10900 10902 10903 10904 10905 10907 10908 10910 10911 10913 10915 10916 10916 10916
10760 10767 10773 10779 10785 10790 10795 10799 10803 10808 10813 10817 10820 10823 10825 10826 10828 10831 10835 10838 10842 10846 10849 10851 10854 10856 10858 10859 10861 10863 10865 10867 10870 10871 10873 10874 10876 10877 10878 10879 10880 10882 10884 10885 10887 10888 10889 10891 10892 10893 10895 10896 10898 10899 10900 10902 10904 10905 10907 10908 10909 10909 10909
10754 10761 10766 10772 10777 10783 10788 10792 10796 10801 10805 10809 10813 10816 10818 10819 10821 10824 10827 10831 10836 10840 10843 10845 10847 10849 10851 10853 10855 10856 10858 10861 10863 10865 10866 10868 10870 10871 10872 10873 10874 10876 10877 10879 10880 10881 10883 10885 10886 10887 10888 10890 10891 10892 10894 10896 10897 10898 10899 10901 10901 10901 10902
10747 10755 10760 10766 10771 10776 10780 10785 10789 10793 10798 10802 10806 10809 10811 10812 10814 10816 10820 10825 10830 10834 10836 10838 10840 10842 10845 10847 10849 10850 10851 10854 10857 10859 10860 10862 10864 10865 10866 10867 10868 10870 10871 10872 10873 10875 10876 10878 10879 10881 10882 10883 10885 10886 10887 10889 10890 10891 10892 10893 10894 10894 10894